Find Starlink 36133

NORAD ID: 66963 Int'l Des: 2025-288 Owner: SPXS Country: US Constellation: starlink operational
LEOCIRCULAR

現在のビュー

3D地球を読み込み中...

Starlink 36133について

説明を読み込み中...

次回通過

Passes for default location (London). Set your location on the main map for personalized predictions.

高度履歴

Loading altitude history...

軌道要素

1 66963U 25288E 26146.15500115 .00018234 00000-0 67006-3 0 9992
2 66963 43.0047 306.0624 0002195 266.6546 93.4055 15.27600924 27138
Epoch: May 26, 2026 • Age: 15 hours

現在のステータス

高度 487.6 km
速度 7.63 km/s
衛星直下点 43.08°N, 129.4°W
打ち上げ日 Dec 8, 2025
運用期間 0.4 years
タイプ internet

技術仕様

分類 Payload
質量 575.00 kg
乾燥質量 530.00 kg
総質量 575.00 kg
長さ 0.30 m
直径 4.10 m
スパン 29.00 m
形状 Box + pan
製造者 SPXS
バスタイプ Starlink V2MO
フェーズステータス In Orbit
所有者/国 SPXS/US

Most Searched